| time (UTC) | temp F | wind direction | speed MPH | gust MPH | rain 1hr in | rain 24hr in | rain mn in | humidity % | barometer mb |
| 20260505153052 | 78 | 0 | 0.0 | 4.0 | 0.00 | 0.00 | 0.00 | 84 | 1009.4 |
| 20260505151552 | 78 | 248 | 1.0 | 5.0 | 0.00 | 0.00 | 0.00 | 84 | 1009.4 |
| 20260505124554 | 74 | 0 | 1.0 | 4.0 | 0.00 | 0.00 | 0.00 | 89 | 1009.0 |
| 20260505123048 | 73 | 140 | 1.0 | 3.0 | 0.00 | 0.00 | 0.00 | 90 | 1008.9 |
| 20260505121548 | 73 | 0 | 0.0 | 5.0 | 0.00 | 0.00 | 0.00 | 89 | 1008.8 |
| 20260505120054 | 73 | 77 | 1.0 | 6.0 | 0.00 | 0.00 | 0.00 | 89 | 1008.5 |
| 20260505114547 | 73 | 300 | 1.0 | 4.0 | 0.00 | 0.00 | 0.00 | 89 | 1008.8 |
| 20260505113055 | 73 | 217 | 1.0 | 4.0 | 0.00 | 0.00 | 0.00 | 90 | 1008.9 |
| 20260505111548 | 73 | 264 | 1.0 | 4.0 | 0.00 | 0.00 | 0.00 | 90 | 1008.6 |
| 20260505101551 | 72 | 0 | 0.0 | 2.0 | 0.00 | 0.00 | 0.00 | 89 | 1008.7 |
| 20260505100046 | 72 | 48 | 0.0 | 1.0 | 0.00 | 0.00 | 0.00 | 89 | 1008.9 |
| 20260505094544 | 72 | 68 | 0.0 | 3.0 | 0.00 | 0.00 | 0.00 | 89 | 1008.7 |
| 20260505093055 | 72 | 203 | 0.0 | 2.0 | 0.00 | 0.00 | 0.00 | 89 | 1008.7 |
| 20260505091549 | 72 | 268 | 0.0 | 2.0 | 0.00 | 0.00 | 0.00 | 89 | 1008.9 |
| 20260505090053 | 72 | 123 | 0.0 | 4.0 | 0.00 | 0.00 | 0.00 | 89 | 1009.0 |
| 20260505084555 | 71 | 0 | 0.0 | 4.0 | 0.00 | 0.00 | 0.00 | 89 | 1008.9 |
| 20260505083058 | 71 | 203 | 0.0 | 4.0 | 0.00 | 0.00 | 0.00 | 89 | 1008.9 |
| 20260505081558 | 71 | 173 | 0.0 | 3.0 | 0.00 | 0.00 | 0.00 | 88 | 1009.3 |
| 20260505080053 | 71 | 0 | 0.0 | 6.0 | 0.00 | 0.00 | 0.00 | 88 | 1009.4 |
| 20260505074552 | 71 | 0 | 0.0 | 3.0 | 0.00 | 0.00 | 0.00 | 87 | 1009.4 |
| 20260505073047 | 71 | 204 | 0.0 | 5.0 | 0.00 | 0.00 | 0.00 | 87 | 1009.5 |
| 20260505071551 | 71 | 264 | 0.0 | 3.0 | 0.00 | 0.00 | 0.00 | 87 | 1009.6 |
| 20260505070051 | 71 | 233 | 0.0 | 5.0 | 0.00 | 0.00 | 0.00 | 87 | 1009.7 |
| 20260505064550 | 71 | 110 | 0.0 | 6.0 | 0.00 | 0.00 | 0.00 | 86 | 1009.8 |
| 20260505063048 | 71 | 71 | 1.0 | 5.0 | 0.00 | 0.00 | 0.00 | 86 | 1010.2 |
| 20260505061543 | 71 | 77 | 1.0 | 4.0 | 0.00 | 0.00 | 0.00 | 85 | 1010.5 |
| 20260505060045 | 71 | 154 | 1.0 | 4.0 | 0.00 | 0.00 | 0.00 | 85 | 1010.4 |
| 20260505054556 | 71 | 275 | 0.0 | 5.0 | 0.00 | 0.00 | 0.00 | 84 | 1010.3 |
| 20260505053047 | 71 | 233 | 0.0 | 4.0 | 0.00 | 0.00 | 0.00 | 84 | 1010.8 |
| 20260505051546 | 71 | 221 | 1.0 | 3.0 | 0.00 | 0.00 | 0.00 | 83 | 1010.9 |
| 20260505041547 | 72 | 86 | 2.0 | 5.0 | 0.00 | 0.00 | 0.00 | 81 | 1010.7 |
| 20260505040052 | 72 | 0 | 1.0 | 5.0 | 0.00 | 0.00 | 0.00 | 80 | 1011.3 |
| 20260505034551 | 73 | 40 | 2.0 | 6.0 | 0.00 | 0.00 | 0.00 | 79 | 1011.4 |
| 20260505033045 | 73 | 33 | 1.0 | 9.0 | 0.00 | 0.00 | 0.00 | 78 | 1011.4 |
| 20260505031557 | 73 | 171 | 0.0 | 8.0 | 0.00 | 0.00 | 0.00 | 78 | 1011.2 |
| 20260505030054 | 74 | 249 | 1.0 | 6.0 | 0.00 | 0.00 | 0.00 | 78 | 1011.2 |
| 20260505024551 | 73 | 72 | 1.0 | 4.0 | 0.00 | 0.00 | 0.00 | 78 | 1011.3 |
| 20260505023047 | 73 | 231 | 0.0 | 6.0 | 0.00 | 0.00 | 0.00 | 78 | 1011.2 |
| 20260505021543 | 74 | 0 | 1.0 | 6.0 | 0.00 | 0.00 | 0.00 | 77 | 1011.0 |
| 20260505020050 | 74 | 302 | 2.0 | 7.0 | 0.00 | 0.00 | 0.00 | 76 | 1011.0 |
| 20260505014603 | 74 | 43 | 1.0 | 7.0 | 0.00 | 0.00 | 0.00 | 76 | 1010.8 |
| 20260505013049 | 74 | 58 | 1.0 | 8.0 | 0.00 | 0.00 | 0.00 | 75 | 1010.6 |
| 20260505011552 | 75 | 77 | 2.0 | 7.0 | 0.00 | 0.00 | 0.00 | 74 | 1010.6 |
| 20260505010043 | 75 | 224 | 2.0 | 7.0 | 0.00 | 0.00 | 0.00 | 73 | 1010.4 |
| 20260505004551 | 76 | 327 | 1.0 | 3.0 | 0.00 | 0.00 | 0.00 | 72 | 1010.4 |
| 20260505003046 | 76 | 59 | 2.0 | 6.0 | 0.00 | 0.00 | 0.00 | 71 | 1010.4 |
| 20260505001550 | 77 | 110 | 1.0 | 7.0 | 0.00 | 0.00 | 0.00 | 70 | 1010.3 |
| 20260505000058 | 78 | 106 | 1.0 | 4.0 | 0.00 | 0.00 | 0.00 | 69 | 1010.5 |
| 20260504234552 | 78 | 252 | 1.0 | 7.0 | 0.00 | 0.00 | 0.00 | 68 | 1010.6 |
| 20260504233046 | 78 | 305 | 1.0 | 8.0 | 0.00 | 0.00 | 0.00 | 67 | 1010.7 |
| 20260504231549 | 79 | 57 | 1.0 | 8.0 | 0.00 | 0.00 | 0.00 | 66 | 1010.7 |
| 20260504230046 | 79 | 118 | 1.0 | 9.0 | 0.00 | 0.00 | 0.00 | 64 | 1010.8 |
| 20260504224546 | 79 | 72 | 1.0 | 6.0 | 0.00 | 0.00 | 0.00 | 65 | 1011.0 |
| 20260504223050 | 80 | 131 | 1.0 | 6.0 | 0.00 | 0.00 | 0.00 | 64 | 1011.0 |
| 20260504221547 | 80 | 150 | 2.0 | 6.0 | 0.00 | 0.00 | 0.00 | 63 | 1011.4 |
| 20260504220048 | 80 | 0 | 1.0 | 7.0 | 0.00 | 0.00 | 0.00 | 63 | 1011.5 |
| 20260504214555 | 81 | 238 | 1.0 | 7.0 | 0.00 | 0.00 | 0.00 | 61 | 1011.5 |
| 20260504213049 | 81 | 255 | 2.0 | 6.0 | 0.00 | 0.00 | 0.00 | 60 | 1011.8 |
| 20260504211546 | 82 | 232 | 1.0 | 8.0 | 0.00 | 0.00 | 0.00 | 60 | 1011.7 |
| 20260504204558 | 83 | 313 | 1.0 | 7.0 | 0.00 | 0.00 | 0.00 | 57 | 1012.3 |
| 20260504203111 | 83 | 331 | 2.0 | 7.0 | 0.00 | 0.00 | 0.00 | 57 | 1012.5 |
| 20260504201547 | 82 | 328 | 2.0 | 7.0 | 0.00 | 0.00 | 0.00 | 57 | 1012.8 |
| 20260504200054 | 82 | 246 | 1.0 | 7.0 | 0.00 | 0.00 | 0.00 | 57 | 1013.1 |
| 20260504194547 | 82 | 75 | 1.0 | 6.0 | 0.00 | 0.00 | 0.00 | 57 | 1013.2 |
| 20260504193048 | 83 | 342 | 2.0 | 6.0 | 0.00 | 0.00 | 0.00 | 55 | 1013.4 |
| 20260504191553 | 83 | 158 | 2.0 | 6.0 | 0.00 | 0.00 | 0.00 | 55 | 1013.7 |
| 20260504190058 | 84 | 129 | 1.0 | 10.0 | 0.00 | 0.00 | 0.00 | 56 | 1013.9 |
| 20260504184551 | 83 | 258 | 1.0 | 9.0 | 0.00 | 0.00 | 0.00 | 55 | 1014.0 |
| 20260504183047 | 82 | 44 | 2.0 | 6.0 | 0.00 | 0.00 | 0.00 | 57 | 1014.1 |
| 20260504181543 | 81 | 86 | 2.0 | 8.0 | 0.00 | 0.00 | 0.00 | 58 | 1014.2 |
| 20260504180051 | 81 | 205 | 1.0 | 8.0 | 0.00 | 0.00 | 0.00 | 58 | 1014.6 |
| 20260504174546 | 82 | 333 | 2.0 | 7.0 | 0.00 | 0.00 | 0.00 | 55 | 1014.7 |
| 20260504173055 | 80 | 48 | 2.0 | 7.0 | 0.00 | 0.00 | 0.00 | 57 | 1014.8 |
| 20260504171546 | 81 | 255 | 2.0 | 5.0 | 0.00 | 0.00 | 0.00 | 60 | 1015.2 |